Regional Weather Roundup
Issued by NWS

Home | Current Version | Previous Version | Graphics & Text | Print | Product List | Glossary On
Versions: 1 2 3 4 5 6 7 8 9 10 11 12 13 14 15 16 17 18 19 20 21 22 23 24 25 26 27 28 29 30 31 32 33 34 35 36 37 38 39 40 41 42 43 44 45 46 47 48 49 50
000
ASUS43 KDTX 302301
RWRMI
MICHIGAN HOURLY REGIONAL WEATHER ROUNDUP
NATIONAL WEATHER SERVICE DETROIT/PONTIAC MI
700 PM EDT FRI SEP 30 2016

NOTE: "FAIR" INDICATES FEW OR NO CLOUDS BELOW 12,000 FEET WITH NO
SIGNIFICANT WEATHER AND/OR OBSTRUCTION TO VISIBILITY.

MIZ047>049-052>055-059>063-066>070-074>076-081>083-010000-
SOUTHEAST LOWER MICHIGAN

CITY           SKY/WX    TMP DP  RH WIND       PRES   REMARKS
ADRIAN         LGT RAIN  60  60 100 E10       30.10R FOG
ALMA           RAIN      60  60 100 N9        30.15F
ANN ARBOR      LGT RAIN  60  59  96 N10       30.07F
BAD AXE        LGT RAIN  61  58  92 CALM      30.18R
CARO           CLOUDY    61  60  97 E7        30.16S
DETROIT CITY   RAIN      61  61 100 N14       30.06F FOG
DETROIT        LGT RAIN  61  61 100 NE7       30.08F
FLINT          LGT RAIN  59  58  96 NE12      30.13S FOG
GROSSE ILE     CLOUDY    61  60  95 SE3       30.07S
HILLSDALE      CLOUDY    59  55  88 NE6       30.08S
HOWELL         DRIZZLE   59  58  97 NE7       30.13R

CITY           SKY/WX    TMP DP  RH WIND       PRES   REMARKS
JACKSON        RAIN      59  59 100 NE7       30.11R
LAMBERTVILLE   CLOUDY    63  60  93 CALM      30.09R FOG
LANSING        LGT RAIN  59  56  89 NE9       30.12R
LAPEER         RAIN      59  58  97 NE7       30.15S
MASON          LGT RAIN  58  57  94 NE7       30.12R
MONROE         CLOUDY    61  61  99 N5        30.08R
MT. CLEMENS    DRIZZLE   61  61 100 E9        30.10F FOG
PONTIAC        DRZL/FOG  59  58  96 E8        30.13R VSB 1
PORT HURON     DRIZZLE   59  57  94 E8G17     30.15S
TRI CITIES     LGT RAIN  61  60  97 NE10      30.17F FOG
MIDLAND        RAIN      60  59  97 NE9       30.17S
TROY           RAIN      61  59  92 NE9       30.13F
SAGINAW HB     DRIZZLE   61  59  94 N7        30.15F
$$
MIZ043>046-050>051-056>058-064>065-071>073-077>080-010000-
SOUTHWEST LOWER MICHIGAN

CITY           SKY/WX    TMP DP  RH WIND       PRES   REMARKS
BATTLE CREEK   LGT RAIN  60  58  92 E8        30.10S
BENTON HARBOR  CLOUDY    62  57  83 NE6       30.08R
BIG RAPIDS     RAIN      60  59  97 NE3       30.17S
COLDWATER      CLOUDY    60  59  97 E8        30.09S FOG
FREMONT        RAIN      59  58  97 E8        30.15S
HOLLAND        LGT RAIN  61  57  87 NE9G18    30.10F
GRAND RAPIDS   LGT RAIN  59  56  89 NE15      30.10F
IONIA          LGT RAIN  58  56  95 NE14G21   30.11F
KALAMAZOO      CLOUDY    61  56  83 VRB7G18   30.10S
LUDINGTON      CLOUDY    60  60  99 NE5       30.16S
MARSHALL       RAIN      59  58  97 NE5       30.10R
MOUNT PLEASANT CLOUDY    60  59  96 NE8       30.17S
MUSKEGON       LGT RAIN  61  58  90 NE12G20   30.14S
SOUTH HAVEN    CLOUDY    62  59  91 NE6       30.09S
$$
MIZ016>042-010000-
NORTHERN LOWER MICHIGAN

CITY           SKY/WX    TMP DP  RH WIND       PRES   REMARKS
ALPENA         CLOUDY    62  51  67 E15G21    30.28R
BEAVER ISLAND  CLOUDY    62  53  73 E12G20    30.27R
BELLAIRE       CLOUDY    66  54  66 NE13G20   30.22S
CADILLAC       LGT RAIN  59  58  95 NE7       30.19S
CHARLEVOIX     CLOUDY    63  53  69 E15       30.26F
FRANKFORT      MOCLDY    64  58  79 E3        30.19S
GAYLORD        CLOUDY    61  52  72 NE10      30.25S
GRAYLING       CLOUDY    62  55  78 NE16G24   30.23S
HARBOR SPRINGS CLOUDY    61  55  82 E15G21    30.26R
HOUGHTON LAKE  CLOUDY    61  56  83 NE14      30.22R
MANISTEE       LGT RAIN  61  59  93 NE5       30.17F FOG
OSCODA         CLOUDY    62  54  73 NE16      30.22S
PELLSTON       CLOUDY    62  52  69 E8        30.28R
ROGERS CITY    CLOUDY    62  53  73 E6        30.30R
TRAVERSE CITY  MOCLDY    66  57  72 E6        30.19S
$$
MIZ007>008-015-010000-
EASTERN UPPER MICHIGAN

CITY           SKY/WX    TMP DP  RH WIND       PRES   REMARKS
KINROSS        CLOUDY    63  54  72 E6        30.30F
MACKINAC ISLAN CLOUDY    62  52  70 E9        30.28S
NEWBERRY       MOCLDY    64  55  74 CALM      30.29S
S. S. MARIE    CLEAR     65  54  67 S3        30.30S
MUNISING         N/A     64  57  78 NE7       30.29S
$$
MIZ004>006-011>014-085-010000-
CENTRAL UPPER MICHIGAN

CITY           SKY/WX    TMP DP  RH WIND       PRES   REMARKS
MANISTIQUE     CLOUDY    64  50  59 NE6       30.28S
ESCANABA       CLOUDY    66  51  58 E13       30.26S
MENOMINEE      CLOUDY    63  55  75 E16       30.24F
SAWYER-GWINN   MOCLDY    57  52  82 NE10      30.31S
$$
MIZ001>003-009>011-084-010000-
WESTERN UPPER MICHIGAN

CITY           SKY/WX    TMP DP  RH WIND       PRES   REMARKS
IRON MOUNTAIN  CLOUDY    63  47  55 NE7       30.27S
HOUGHTON       CLEAR     61  47  59 E6        30.33S
COPPER HARBOR    N/A     59  56  89 E3        30.34S
IRONWOOD       MOCLDY    58  55  90 N6        30.31S
$$

ABBREVIATIONS USED IN REMARKS
   TC - TEMPERATURE IN CELSIUS
  WCI - WIND CHILL INDEX
   HX - HEAT INDEX
  VSB - VISIBILITY





USA.gov is the U.S. government's official web portal to all federal, state and local government web resources and services.